{"data":{"norad_id":59523,"intl_designator":"2024-073N","name":"STARLINK-31476","alt_names":[],"object_type":"PAYLOAD","status":"ACTIVE","operator":null,"country":"US","launch_date":"2024-04-17","launch_site_code":"AFETR","launch_vehicle":null,"mission":null,"orbit_class":"UNKNOWN","rcs_meters":null,"size_class":null,"mass_kg":null,"dimensions":null,"purposes":["comms"],"wikipedia_slug":null,"has_3d_model":false,"image_url":null,"decayed_at":null,"tle_current":{"epoch":"2026-09-21T12:29:16.083456Z","epoch_age_seconds":77210,"freshness":"FRESH","line1":"1 59523U 24073N   26264.52032504  .00000067  00000+0  11961-4 0  9995","line2":"2 59523  43.0023 292.2192 0001066 277.5890  82.4841 15.27578120136124","mean_motion":15.2757812,"eccentricity":0.0001066,"inclination_deg":43.0023,"raan_deg":292.2192,"arg_perigee_deg":277.589,"mean_anomaly_deg":82.4841,"bstar":1.1961e-5,"rev_number":13612,"period_min":94.266864728332,"perigee_km":482.32332240382,"apogee_km":483.78612847969,"semimajor_km":6861.1917254418,"source":"CELESTRAK","updated_at":"2026-09-22T09:00:48.965148Z"}}}